Theta_e
296 296 295 296 295 295 294 292 292 294 294 294 294 294 294 293 292 291 289 288 287 286 286 285 285 285 284 284 284 284 284 283 283 283 282 282 281 281 281 281 280 279 280 279 279 279 279 278 278 278 279 278 278 279 279 278 278 278 278 278 277 276 276 275 274 274 274 277 276 277 277 275 275 276 275 276 276 277 281 277 277 276 276 277 277
296 296 295 296 295 295 294 292 292 292 292 292 292 292 292 292 290 288 287 286 286 286 285 285 284 284 284 283 283 283 283 283 282 282 281 281 281 282 280 280 279 278 278 278 278 279 278 278 277 278 279 279 279 279 279 279 278 276 276 277 276 276 275 275 273 274 272 274 275 277 275 276 273 276 275 276 276 277 276 276 277 276 276 276 276
296 296 295 295 295 294 293 291 290 290 290 291 290 290 291 289 288 288 286 285 285 285 284 284 284 283 283 283 283 282 282 282 282 281 281 281 280 280 280 279 279 278 278 277 277 278 277 277 277 279 280 279 278 278 278 278 277 276 275 275 275 275 275 274 273 273 273 273 274 274 274 275 275 274 276 277 278 277 276 276 276 277 277 277 277
295 295 294 293 294 293 292 291 289 289 289 290 290 290 290 289 288 288 286 285 285 284 284 284 283 283 283 282 282 282 282 281 281 280 281 280 280 279 278 278 278 278 278 278 278 278 277 277 277 278 279 278 278 278 277 277 276 276 275 274 274 275 274 275 275 273 273 273 273 274 274 275 274 277 278 278 276 275 276 276 275 275 275 277 277
294 294 293 292 291 292 291 291 290 289 289 290 290 290 290 289 288 287 286 285 284 283 283 283 283 283 283 282 282 281 281 281 280 280 280 280 280 279 279 278 278 278 278 279 280 278 277 277 277 278 278 277 277 277 277 277 276 276 275 275 275 274 275 275 274 274 273 273 272 274 275 274 275 275 276 275 275 275 275 274 274 275 275 275 276
294 293 292 292 291 291 291 290 290 290 290 290 290 290 289 288 287 287 286 285 284 283 284 283 283 282 282 282 282 281 281 281 281 280 280 280 279 279 278 278 278 278 278 278 279 278 277 277 278 278 278 277 277 277 277 276 276 275 275 275 275 274 274 274 274 274 273 273 273 273 274 274 274 274 274 275 275 274 273 274 273 274 274 273 274
292 292 292 292 291 291 291 291 290 290 289 290 290 289 289 288 287 287 286 285 284 283 283 283 282 282 282 281 281 281 281 280 280 280 280 280 279 278 278 278 278 278 278 278 278 278 278 278 278 278 278 278 277 277 277 277 277 275 275 275 275 274 274 274 274 274 274 273 273 274 273 274 274 273 274 276 275 274 273 273 272 273 273 273 273
291 292 291 291 291 291 291 291 290 290 289 289 289 289 288 288 287 287 286 285 284 283 283 282 281 281 281 281 281 281 280 280 280 280 280 280 279 279 279 278 278 277 277 277 278 278 278 278 278 278 278 278 278 278 277 277 277 275 275 275 275 274 274 274 274 273 273 273 273 272 273 273 273 275 275 274 273 273 274 272 270 271 272 272 272
291 291 291 291 292 291 290 290 289 289 288 288 287 288 288 287 287 286 286 285 285 283 283 282 281 281 281 281 281 281 281 281 280 280 280 279 279 279 278 278 278 278 278 278 278 278 278 278 278 278 279 281 282 281 280 280 277 276 275 275 275 275 274 274 274 273 273 273 273 274 273 273 274 273 272 272 272 271 271 272 271 272 272 271 272
291 291 291 291 291 290 290 289 288 288 288 288 287 287 287 287 286 286 285 285 284 283 282 282 281 281 281 281 281 281 281 281 282 284 284 280 279 279 279 279 279 278 278 278 277 278 278 278 279 281 282 282 282 283 283 283 282 278 276 275 275 275 274 274 274 273 273 272 273 272 272 272 272 273 273 273 273 272 272 271 270 270 270 270 271
291 291 291 291 290 289 289 288 288 287 288 288 287 287 286 286 285 285 285 284 283 283 283 282 281 281 281 281 280 281 281 281 284 287 286 285 280 279 278 278 279 278 278 277 277 277 277 278 279 281 281 281 281 283 284 283 283 282 281 280 279 276 274 273 273 274 273 272 272 272 272 272 272 273 273 273 273 273 271 270 270 270 269 267 267
291 291 291 290 290 289 289 288 287 287 287 287 287 287 286 286 285 285 285 284 283 283 282 282 282 281 281 280 280 280 280 283 287 288 287 286 284 280 279 279 279 278 278 278 277 277 277 277 278 278 278 278 278 280 281 283 283 283 282 282 281 281 280 276 274 273 272 272 271 272 271 272 272 273 273 273 272 271 270 270 269 269 268 268 269
292 291 291 290 290 290 288 287 287 287 287 287 287 286 286 286 285 285 285 284 284 283 282 282 282 281 281 280 280 280 279 285 288 289 288 287 285 282 280 279 279 278 278 278 278 277 277 277 277 277 277 280 278 277 278 279 282 282 282 282 281 282 282 282 281 276 274 273 271 271 272 272 272 273 273 272 274 270 269 268 269 269 269 269 270
291 291 291 290 290 290 289 287 287 286 286 286 286 286 286 285 286 285 285 285 284 283 282 282 282 281 281 280 280 279 278 284 289 289 288 288 286 283 279 279 279 279 278 278 278 278 277 277 276 276 277 278 277 277 276 276 277 278 278 278 278 279 281 282 281 280 278 274 273 272 273 275 273 273 274 275 271 269 268 268 267 268 269 270 272
291 291 291 290 290 289 289 288 287 286 286 285 285 286 286 286 285 285 285 284 284 283 283 282 282 282 281 281 280 279 279 285 288 289 288 288 287 284 279 279 279 278 278 278 278 278 278 278 277 277 276 277 277 277 276 276 276 276 276 276 277 277 277 277 278 278 278 277 274 274 274 275 275 275 275 274 272 271 270 269 270 271 272 272 271
290 290 290 290 290 290 289 288 287 286 286 285 285 285 286 285 285 285 285 284 284 284 283 283 282 282 281 281 280 279 279 286 288 288 288 288 287 281 279 279 279 278 278 278 278 278 278 278 277 277 276 276 278 281 279 277 276 274 275 275 276 276 277 278 280 280 278 277 276 276 275 276 279 276 274 273 272 273 274 273 272 271 269 268 266
290 290 289 289 289 289 289 288 287 286 286 285 285 286 285 285 285 285 284 284 284 283 283 282 282 282 281 280 280 279 279 284 287 287 288 288 285 279 279 279 279 278 278 278 278 278 278 278 278 277 277 276 279 282 282 279 275 274 274 274 274 274 275 277 280 282 282 282 282 282 282 282 282 283 282 282 280 276 273 271 269 269 267 265 266
290 289 289 289 289 289 288 288 288 287 286 286 285 285 286 286 285 285 284 284 283 283 283 282 282 282 281 280 280 280 279 282 287 288 288 288 283 279 279 279 278 278 278 278 278 278 278 280 279 277 277 276 280 282 283 280 275 274 273 273 271 271 272 274 274 275 280 281 282 282 282 282 282 283 283 283 282 278 271 269 270 268 266 265 264
290 289 289 289 289 288 288 288 288 287 287 286 286 285 285 285 285 285 284 284 283 283 283 282 282 281 281 281 281 280 279 281 286 287 287 287 283 280 279 278 278 278 277 277 278 278 277 279 280 279 278 278 281 282 283 281 276 274 273 272 271 270 271 271 271 271 270 269 271 273 275 278 278 277 277 280 280 277 274 272 272 269 267 267 265
289 289 288 288 288 288 287 287 287 287 287 286 285 285 284 284 284 284 284 284 283 283 282 282 281 281 281 280 280 280 279 279 284 286 287 287 285 281 280 278 278 278 278 278 277 277 277 276 279 281 281 281 281 282 283 283 277 275 273 271 270 270 270 269 270 270 269 270 269 268 270 269 270 271 272 274 276 276 274 273 272 270 267 265 263
287 287 287 287 287 287 287 287 287 286 286 285 284 283 283 283 283 283 283 283 283 282 282 281 281 280 280 279 279 279 279 279 283 286 286 287 286 283 280 280 280 279 278 278 277 277 276 276 275 280 282 282 282 282 282 283 282 275 274 272 272 272 272 268 271 274 270 270 270 270 270 269 270 270 271 272 273 273 274 274 272 271 268 264 263
286 286 286 287 286 286 286 286 286 286 285 284 283 282 282 283 283 282 282 282 282 282 281 281 280 279 279 278 279 278 279 280 281 285 286 287 286 285 282 281 282 280 279 278 278 277 277 276 275 278 281 282 282 282 282 282 283 278 275 278 279 279 276 272 271 272 273 273 272 272 272 271 271 270 271 271 272 272 272 272 273 271 270 269 267
285 286 285 285 285 285 285 285 286 285 284 284 283 282 282 282 282 283 282 282 281 281 280 280 279 278 278 277 278 278 278 279 282 283 285 286 287 286 285 283 284 282 281 279 279 278 278 277 277 279 281 282 282 283 283 283 282 280 281 281 281 281 280 277 275 274 273 273 273 272 272 272 272 271 271 271 271 272 272 272 272 271 270 270 270
284 284 284 284 284 284 284 285 285 285 284 284 283 282 281 282 282 282 282 281 281 280 280 279 279 277 277 276 277 277 278 278 281 283 284 286 286 287 286 286 285 282 282 280 280 279 278 278 278 281 281 282 282 283 283 283 281 282 283 283 282 282 280 279 277 276 274 273 272 272 272 272 272 271 271 272 271 271 271 271 271 271 270 268 267
284 284 283 283 283 283 283 283 283 283 283 283 282 281 280 280 281 282 281 281 280 279 279 279 278 278 277 276 276 276 276 277 278 281 283 284 286 286 287 287 286 285 282 281 280 279 281 282 282 282 282 282 283 283 283 283 283 283 283 283 282 280 279 277 277 276 275 274 273 273 272 272 272 272 273 272 271 271 269 268 268 267 265 263 262
283 283 282 282 282 282 281 280 281 281 281 282 282 282 281 280 280 280 280 280 280 279 279 278 278 278 277 277 276 276 276 276 277 278 280 282 283 285 286 286 285 285 283 281 282 283 283 283 283 283 282 282 281 279 278 278 281 282 281 281 279 277 277 276 276 275 274 274 273 272 272 272 272 272 271 270 268 267 267 267 266 264 262 261 260
283 281 281 280 280 281 281 281 280 281 281 281 281 281 281 281 281 280 280 280 280 279 278 278 278 278 277 277 277 276 276 276 276 276 277 278 279 281 283 283 284 285 283 282 283 282 282 282 281 282 281 282 281 280 280 280 279 279 277 276 275 276 276 274 274 274 274 273 273 272 271 271 270 269 268 267 267 267 267 266 264 263 261 260 259
282 281 280 281 281 281 281 279 280 280 280 280 280 280 280 281 280 280 280 280 279 279 278 278 278 278 278 278 277 276 275 275 275 275 276 276 277 277 278 279 280 281 281 279 279 280 280 282 282 280 280 280 280 278 278 277 277 277 276 276 276 276 277 277 277 272 270 269 269 270 269 267 267 267 267 266 266 266 266 265 264 262 261 259 257
281 279 280 280 280 279 280 280 280 280 279 279 278 278 280 280 281 281 281 282 281 280 279 279 279 279 279 278 277 276 275 275 275 278 276 278 276 276 276 277 277 276 279 280 276 276 275 275 275 275 276 276 276 276 276 276 275 276 276 276 276 275 274 274 273 272 270 267 267 266 266 266 266 267 266 266 266 265 265 265 264 263 261 259 259
279 279 280 280 280 279 279 279 279 279 279 278 277 277 279 282 281 281 280 282 283 283 282 280 280 280 279 279 279 278 277 277 279 280 279 279 280 279 278 279 279 277 280 282 277 273 273 273 273 273 273 274 274 274 274 275 274 275 275 276 275 273 273 272 272 272 271 270 269 268 267 268 267 267 266 266 265 265 266 266 263 262 260 259 258
280 280 280 280 280 280 279 279 278 278 277 277 276 275 275 278 283 282 282 282 283 283 283 283 282 282 280 278 280 282 281 281 281 280 280 280 280 280 280 280 280 280 281 278 274 273 271 271 271 271 272 273 273 274 274 274 274 274 274 274 273 272 272 271 271 269 268 267 268 268 268 268 268 267 266 266 266 265 265 265 264 261 261 259 258
280 280 280 279 279 279 278 278 278 277 276 276 276 276 276 275 276 281 282 282 283 283 283 283 283 282 282 280 278 278 282 282 282 281 280 280 280 280 280 280 280 280 280 280 271 271 271 270 270 270 271 272 273 273 274 273 273 273 272 271 271 271 270 269 268 265 264 264 266 267 268 267 267 266 266 266 266 265 264 263 262 261 260 259 259
280 279 278 278 278 278 278 278 278 278 277 276 277 277 277 276 274 274 278 281 281 281 282 282 283 283 282 281 281 280 280 281 282 281 281 280 280 280 280 280 280 280 280 275 270 270 270 270 270 270 271 271 271 271 271 272 272 271 272 271 270 269 267 267 267 264 264 264 263 264 266 266 266 265 265 265 265 264 263 262 262 261 260 259 259
279 279 278 278 278 278 278 278 279 279 278 278 278 278 277 276 275 274 274 275 276 279 281 281 281 281 281 281 281 281 281 281 281 280 280 280 280 280 279 278 280 280 277 271 271 270 270 270 270 270 269 270 269 269 269 268 269 269 268 268 268 267 267 266 266 264 262 264 263 263 264 265 265 264 264 264 264 264 263 262 261 260 259 258 258
276 275 275 276 277 277 278 279 279 279 278 278 277 277 276 276 274 274 274 273 273 273 274 276 279 280 278 279 280 280 280 280 280 280 280 280 280 280 280 277 276 276 275 273 272 271 270 270 270 270 269 269 269 269 269 269 269 269 269 267 266 265 266 267 267 266 265 262 262 262 263 264 265 265 264 264 263 262 261 260 259 259 258 257 257
276 275 276 277 278 278 278 279 279 279 278 278 277 276 275 274 273 272 272 272 272 272 273 275 276 278 279 279 279 280 280 280 280 280 280 280 280 280 275 274 275 275 274 274 273 273 273 272 271 270 270 270 271 271 271 271 271 271 270 269 269 269 269 268 267 265 264 264 264 265 266 264 265 264 264 264 262 261 259 259 258 257 257 256 256
275 275 276 277 278 278 278 277 277 277 277 276 276 276 276 275 274 274 273 272 271 272 273 274 275 276 278 276 278 279 279 279 279 279 280 280 281 278 275 275 274 275 274 274 274 274 273 273 272 272 272 271 272 272 272 272 272 271 271 270 270 270 269 268 267 265 265 264 264 265 265 264 264 264 263 262 260 258 257 257 257 258 257 258 259
276 276 277 277 277 276 276 275 275 275 275 275 275 275 274 274 273 273 273 272 272 271 272 273 274 273 272 274 278 277 277 278 279 278 278 279 278 275 274 273 273 273 274 274 274 274 274 274 273 272 273 273 272 272 272 271 270 269 268 267 268 267 269 266 267 265 265 265 265 263 262 262 262 262 261 259 258 257 257 257 255 254 256 258 257
276 276 276 276 276 276 275 274 274 274 274 274 274 273 273 273 273 273 273 272 271 271 271 272 272 272 273 274 275 276 277 275 275 274 274 274 275 274 273 272 272 272 272 272 272 272 272 271 271 271 270 271 270 269 269 268 267 266 266 265 263 261 262 260 262 264 264 263 262 260 259 258 258 257 257 256 256 255 255 255 255 255 254 254 255
274 274 275 275 274 273 272 272 272 273 272 273 273 272 272 272 272 272 271 271 270 270 271 271 271 271 272 273 274 275 274 274 274 274 274 273 273 272 272 271 270 270 269 269 270 269 269 268 268 268 267 267 268 267 267 267 267 266 264 263 260 257 256 258 259 260 260 259 258 256 256 255 255 256 256 255 255 254 253 254 254 255 254 253 255
273 273 272 274 273 272 271 271 271 272 272 271 272 271 271 271 271 271 271 270 269 269 269 270 271 271 272 272 276 276 273 273 273 273 272 272 271 271 271 271 269 268 268 268 268 267 267 267 266 266 266 266 266 266 265 266 264 263 261 258 257 257 256 256 257 256 255 255 255 255 254 254 254 254 255 254 259 256 254 254 254 253 255 254 254
272 272 272 271 271 271 270 270 270 269 270 269 270 270 270 270 270 270 270 269 268 268 269 268 268 268 272 274 276 276 273 272 272 271 271 271 270 270 270 269 269 269 268 268 267 266 266 265 265 265 265 264 264 263 262 260 259 257 256 256 256 255 255 254 254 254 253 253 252 252 251 252 253 253 254 259 253 252 251 252 253 253 252 253 253
271 271 271 270 271 270 270 270 270 270 270 269 269 268 268 269 269 268 268 268 268 268 267 266 265 266 270 275 275 276 270 269 269 270 270 270 270 269 268 268 267 266 266 265 265 265 265 264 264 264 264 263 262 261 260 258 255 255 255 254 254 255 254 253 253 253 253 253 253 253 252 252 254 253 251 253 251 251 251 251 252 253 252 252 252
270 270 270 270 270 270 269 269 269 268 268 267 267 267 267 267 267 267 267 267 266 266 266 265 265 265 267 271 273 271 268 266 265 266 267 267 268 267 266 264 263 262 262 261 262 262 263 262 260 258 257 256 255 254 254 253 255 255 255 254 254 254 253 253 253 252 253 253 253 253 252 251 253 251 253 254 250 252 251 250 251 252 252 250 251
271 270 270 270 269 268 267 267 267 266 266 265 266 265 265 266 266 266 266 266 265 265 264 264 264 265 266 268 269 268 267 265 262 262 263 264 263 262 261 261 261 260 259 258 257 257 258 258 257 255 253 252 251 251 251 251 251 253 252 254 254 254 255 254 253 251 252 252 252 252 252 252 251 251 252 251 252 250 252 251 251 254 252 251 251
270 269 269 268 267 266 266 266 265 265 265 265 265 265 264 265 264 264 264 264 264 264 263 263 264 264 265 266 267 265 265 264 262 262 261 261 261 260 259 258 258 257 257 256 254 253 254 254 254 254 253 252 251 251 250 250 250 250 249 250 253 253 251 251 250 252 252 251 252 251 251 251 250 252 253 250 251 251 251 250 249 251 251 251 251
269 268 268 267 267 265 264 264 264 264 264 263 263 263 263 262 263 262 262 263 263 262 262 263 263 263 264 264 264 264 263 263 261 261 261 260 259 258 257 256 256 256 255 254 253 254 253 253 253 253 252 251 250 251 250 250 249 250 251 249 248 249 249 249 250 251 251 250 251 250 251 251 252 251 253 253 252 252 252 251 251 250 250 250 250
266 265 265 264 264 263 263 263 263 261 262 262 261 261 261 261 261 261 261 261 262 261 261 261 261 261 261 261 261 261 261 261 260 259 259 258 257 257 256 255 255 255 254 253 252 253 252 252 251 251 252 251 251 251 250 249 249 249 250 250 250 250 251 252 248 249 250 250 249 250 249 250 250 250 251 251 250 251 251 250 251 251 250 251 251
264 263 263 263 262 262 262 262 261 262 261 261 261 261 260 261 260 260 259 260 260 259 260 260 260 260 260 260 259 259 259 258 259 258 258 257 256 255 255 255 254 254 254 253 252 251 251 251 251 251 251 251 251 251 250 250 251 250 249 249 251 254 254 254 251 250 252 251 250 248 248 249 249 250 250 250 251 250 250 249 249 250 250 250 250
262 262 262 261 261 261 260 261 260 260 260 260 260 260 260 259 260 259 260 259 259 259 259 260 260 260 260 259 258 258 258 258 258 257 257 256 256 255 254 253 253 253 253 252 252 251 251 250 251 250 251 250 250 250 250 251 250 251 250 250 255 256 255 255 254 253 253 249 250 249 250 249 247 249 249 249 249 249 249 250 250 251 250 249 249
261 261 261 261 260 261 261 260 260 260 260 260 261 261 260 260 260 260 260 260 260 259 259 259 259 259 259 259 258 258 258 257 257 257 257 256 255 255 254 253 252 252 251 251 251 251 251 251 251 251 251 251 251 251 250 251 250 250 253 255 256 256 256 255 253 254 254 252 248 249 249 250 249 249 248 249 248 248 250 250 250 249 249 249 249
Wind_Speed
11 10 10 10 11 11 10 9 10 9 9 9 9 10 9 9 8 7 7 8 9 10 10 10 9 9 10 10 10 10 9 9 8 9 9 9 8 9 9 9 10 8 9 8 5 7 7 8 7 6 6 7 6 6 5 5 4 4 3 4 4 3 4 4 5 4 2 1 4 4 5 4 1 4 3 2 1 2 2 2 2 3 3 5 5
12 11 10 10 11 11 10 9 9 9 10 9 9 9 9 9 7 7 9 8 9 10 10 9 8 9 9 10 10 9 9 9 8 9 10 10 9 7 9 10 10 9 8 9 7 6 7 8 7 7 6 7 7 6 6 5 5 5 4 5 5 4 3 3 4 5 5 1 0 0 2 3 1 2 3 1 2 2 3 3 2 3 4 5 6
9 10 10 11 12 11 10 10 10 10 10 9 9 9 8 7 6 9 8 8 7 8 9 9 9 9 8 10 10 9 10 9 8 9 10 11 11 9 9 10 11 11 10 9 9 8 8 7 8 7 6 7 6 5 5 5 5 5 5 4 5 4 4 3 3 5 4 3 2 2 2 2 2 1 0 1 2 2 3 3 3 3 3 5 6
9 10 10 11 11 11 11 10 11 11 11 10 10 9 8 7 7 8 8 7 8 7 8 9 9 10 10 10 10 10 10 9 9 9 11 11 11 11 10 9 10 11 11 11 10 9 9 8 7 7 6 7 7 7 6 5 5 5 5 4 4 4 4 3 2 3 3 3 2 2 1 1 1 0 0 1 2 3 3 4 3 4 4 5 5
10 10 10 11 11 12 12 11 12 12 12 10 11 10 9 8 7 8 8 9 8 8 7 7 9 10 11 11 11 11 11 11 10 9 8 9 11 11 10 9 10 10 11 11 10 10 9 9 9 8 8 8 7 7 7 7 6 6 6 4 4 3 3 3 3 2 3 3 2 1 0 1 1 2 2 2 4 2 2 2 3 5 6 5 4
10 11 10 11 12 13 13 12 13 13 12 11 11 11 10 9 8 8 9 10 9 9 10 9 10 10 9 10 11 12 11 11 11 11 11 10 9 9 9 9 9 9 9 9 9 8 9 9 9 9 9 10 9 8 7 8 6 6 6 5 5 3 4 4 3 3 3 3 3 4 1 2 2 2 2 2 4 4 3 3 3 5 5 3 3
9 11 11 11 11 13 14 14 13 12 12 12 10 10 10 9 9 10 9 10 11 10 9 10 8 10 9 9 10 11 11 11 11 11 11 11 11 10 10 9 9 8 8 9 8 8 8 9 9 10 10 9 9 9 8 8 7 7 7 6 5 5 5 5 4 4 4 3 3 4 4 3 3 4 2 1 3 3 3 6 5 3 1 4 6
9 10 11 12 13 13 13 12 12 12 11 11 11 10 10 10 9 9 9 10 11 11 11 11 8 8 9 9 9 10 11 11 10 10 11 11 11 10 10 10 9 8 8 9 9 8 8 8 9 9 8 7 8 8 9 9 6 6 6 6 6 6 6 5 5 5 4 4 5 5 4 4 3 2 1 1 2 3 1 3 6 6 6 1 2
9 10 10 13 14 12 10 10 10 11 11 11 11 11 11 10 10 10 10 10 9 9 9 10 10 10 9 9 10 9 11 11 10 11 12 11 10 11 11 12 12 11 10 9 8 8 7 7 7 7 8 8 10 9 7 7 8 7 6 7 7 7 5 4 5 4 4 4 5 4 4 5 4 2 3 3 4 5 2 2 5 4 4 5 4
10 10 12 14 10 9 9 9 10 10 12 13 12 12 11 11 11 11 11 10 9 9 9 10 11 12 11 10 9 9 9 8 11 17 13 13 13 11 10 10 10 10 11 10 8 7 7 6 7 11 12 10 9 11 12 12 10 8 8 8 7 7 7 6 6 6 5 5 6 4 5 6 5 4 4 3 1 1 3 3 5 4 4 6 6
10 11 14 11 9 8 9 10 10 12 13 12 11 12 12 11 11 11 10 10 11 11 11 11 11 10 11 11 11 10 9 8 16 16 16 15 11 11 11 11 10 10 10 11 10 9 7 7 6 9 9 8 7 8 10 12 12 12 11 10 9 9 8 7 7 6 6 6 5 4 5 6 5 3 4 3 3 3 4 2 2 3 4 6 9
12 13 12 9 10 11 11 10 11 11 11 13 13 12 11 10 11 11 11 11 10 9 12 13 12 11 10 11 11 10 9 11 14 15 16 17 13 12 10 10 10 10 10 10 9 9 9 7 6 6 6 7 6 6 7 10 11 10 10 10 13 12 10 8 6 5 6 6 6 6 4 6 3 3 3 2 3 3 2 1 2 3 5 5 6
11 11 11 11 11 11 10 11 11 11 12 11 10 10 11 10 11 11 12 11 10 12 12 12 12 11 11 12 11 9 7 12 13 14 16 17 16 12 9 10 9 10 10 10 10 9 8 8 7 6 5 9 7 6 6 6 9 11 10 9 9 12 13 13 9 7 5 7 7 6 7 4 4 3 2 2 2 4 3 3 3 4 5 6 7
11 12 11 11 12 11 11 11 11 11 9 9 9 10 11 13 11 9 9 9 11 11 10 12 11 12 12 12 11 10 9 13 16 16 17 17 17 12 9 11 10 10 11 11 10 10 10 9 8 7 6 7 7 7 7 7 6 6 6 6 6 8 11 12 13 12 9 8 6 8 5 5 5 3 3 3 3 4 3 5 3 4 5 7 5
12 12 13 12 11 11 12 12 12 11 10 10 10 11 12 10 10 10 10 11 11 12 12 12 12 10 11 11 10 10 10 15 16 16 16 18 18 12 8 9 8 9 9 8 9 9 9 8 8 8 7 8 8 9 8 8 7 7 7 7 7 7 6 7 7 6 7 6 7 7 6 5 4 4 4 5 5 5 4 4 5 5 5 5 5
11 10 10 10 11 11 11 11 10 10 11 11 12 12 12 12 12 10 9 8 8 7 7 7 9 9 8 9 11 11 9 18 18 18 18 19 19 10 9 9 8 7 8 9 8 8 8 8 8 8 8 8 10 15 11 7 7 8 8 7 6 6 7 7 10 9 8 6 6 6 5 6 8 6 5 5 4 4 4 2 2 1 2 4 7
12 11 10 10 11 11 11 12 11 12 12 13 14 14 13 12 10 8 9 9 10 10 10 9 8 9 10 9 11 11 9 18 22 21 20 22 16 8 8 8 8 8 8 8 7 7 7 8 8 7 8 8 11 16 16 13 7 8 8 7 6 5 6 6 11 15 16 15 15 15 14 14 15 16 15 14 10 6 4 3 5 3 1 5 7
11 10 11 11 11 11 12 12 13 13 13 15 14 11 10 8 10 10 12 11 11 10 9 8 8 10 12 12 13 11 10 15 20 19 21 23 14 12 9 9 8 8 6 6 5 5 7 10 9 8 9 9 12 17 17 12 8 8 8 7 7 7 6 5 3 3 8 12 15 16 17 16 18 18 18 16 15 5 7 7 3 4 5 5 6
10 12 12 10 9 10 11 11 12 13 13 13 11 12 12 12 9 9 9 9 10 9 9 10 9 8 9 10 12 11 7 11 17 16 18 19 14 9 9 8 9 7 7 6 5 6 6 8 13 11 9 8 13 15 17 13 8 8 8 7 8 8 8 5 5 5 5 5 5 5 6 9 9 6 5 6 8 11 6 5 4 5 5 5 5
8 7 6 8 8 9 9 11 11 12 12 11 10 11 8 8 9 10 8 8 9 9 9 9 10 9 8 8 9 9 9 7 12 17 17 18 15 9 8 9 9 9 7 7 7 6 6 6 9 15 15 14 14 15 16 17 10 8 7 8 8 11 5 6 6 6 6 6 6 4 5 4 3 1 1 2 5 6 6 5 5 5 5 5 4
6 6 6 7 8 9 8 10 11 10 10 10 9 8 8 9 9 10 10 8 8 8 10 9 9 8 7 8 8 7 7 9 12 19 18 19 19 14 10 10 9 9 8 8 7 7 7 7 6 11 17 16 15 16 15 17 13 9 9 9 10 5 7 6 7 11 7 6 6 6 6 5 5 5 4 4 5 6 6 7 6 6 6 6 5
5 6 7 7 7 8 8 8 9 8 7 8 8 8 7 8 9 9 8 8 9 9 8 8 7 7 6 7 7 7 7 12 10 19 22 22 20 17 9 9 9 9 8 7 7 6 7 7 7 11 16 16 16 16 17 16 17 9 9 12 11 12 8 7 6 6 6 6 6 6 6 6 6 6 7 7 7 7 7 7 6 6 5 6 6
5 6 6 6 6 7 7 9 8 7 8 10 10 9 8 8 7 8 8 8 9 9 9 8 8 7 6 5 6 7 7 8 10 10 17 20 20 18 13 7 13 8 8 8 9 8 6 7 7 13 17 18 17 18 17 18 14 8 12 14 14 14 11 6 7 6 6 6 6 7 7 7 7 7 7 7 7 6 6 6 7 5 5 5 5
5 5 5 5 5 6 7 8 8 8 10 9 9 9 8 8 8 8 8 8 8 8 7 7 7 7 8 6 5 6 6 8 10 12 13 19 18 19 18 14 14 9 8 7 6 6 7 7 8 15 18 18 19 18 17 16 9 13 15 15 15 13 7 6 6 6 6 6 7 6 7 6 6 6 7 7 6 6 6 6 6 6 5 4 4
4 5 5 5 6 5 6 7 7 7 8 9 9 8 8 8 8 7 8 7 7 8 7 7 8 7 7 7 6 5 5 6 7 10 13 17 21 19 20 20 18 14 8 6 6 6 8 11 14 17 17 18 18 17 14 15 17 15 15 15 12 5 5 4 4 4 5 6 6 6 6 6 7 7 5 4 3 3 3 3 2 3 2 3 3
5 5 4 5 5 6 7 5 5 6 7 7 8 9 10 10 9 8 8 8 8 8 8 8 7 7 7 7 7 7 6 5 6 6 7 9 12 19 20 19 17 16 11 7 9 11 12 13 16 16 16 13 10 7 5 6 11 14 14 11 5 4 4 4 3 4 6 6 5 6 5 4 4 3 3 4 5 6 5 4 3 5 3 4 4
5 5 6 6 5 7 8 7 6 6 6 6 6 7 7 7 7 8 8 8 7 7 7 8 8 8 8 8 7 7 7 7 7 7 7 7 7 8 10 11 13 13 9 7 9 8 10 9 7 9 8 12 12 9 8 9 8 7 5 4 4 4 5 4 5 5 5 4 3 3 2 2 3 4 4 4 4 4 4 4 4 5 3 4 4
7 6 7 7 7 7 7 9 9 7 6 7 7 6 5 6 8 9 10 10 10 9 9 9 9 9 9 8 7 7 7 7 8 9 9 8 8 7 7 6 7 7 7 6 7 7 7 7 10 7 7 7 7 5 5 5 6 6 5 4 5 5 6 8 7 5 3 3 2 1 2 3 3 4 3 4 4 4 3 4 4 4 3 2 2
6 6 7 7 7 6 7 7 7 7 6 5 4 2 6 7 7 4 2 4 6 9 9 7 7 7 7 9 9 8 7 9 11 9 10 12 11 9 9 9 7 6 7 9 7 6 6 6 6 6 6 6 6 6 6 5 5 5 6 6 5 6 5 5 5 5 5 3 3 3 4 4 4 3 4 4 5 5 3 4 4 5 3 3 7
6 6 7 7 7 7 7 7 7 7 7 7 7 6 7 7 4 5 5 6 7 5 7 7 8 8 8 7 8 10 11 10 10 17 17 17 17 15 12 12 11 8 10 15 9 6 6 7 6 7 6 6 6 6 6 6 6 6 6 8 7 6 5 5 5 5 4 4 4 4 4 4 4 4 5 5 4 4 5 6 5 4 4 6 6
6 6 7 7 8 8 8 8 7 7 7 8 7 8 6 6 7 8 6 6 7 9 9 8 10 10 8 7 6 7 5 9 16 18 18 18 18 17 15 15 16 15 16 10 7 8 7 8 7 7 7 7 7 7 6 7 7 6 6 6 5 6 5 5 5 4 4 4 4 4 4 5 5 4 5 5 5 5 4 4 5 5 6 6 6
7 7 7 7 8 8 8 8 8 8 8 8 8 8 8 8 6 7 9 9 9 9 9 10 12 13 12 9 7 5 10 14 17 18 19 19 18 17 16 17 17 17 19 13 7 7 7 7 7 7 7 7 7 6 7 7 6 6 6 5 5 5 6 5 4 5 4 4 4 4 4 4 4 5 5 5 4 4 4 5 5 5 5 4 5
7 6 6 7 7 8 8 8 9 9 10 9 9 9 9 8 11 8 6 9 10 9 9 9 11 12 14 13 12 9 9 12 15 16 17 17 17 16 16 16 16 17 18 10 7 7 7 7 7 7 8 8 7 7 6 6 6 5 6 6 6 6 6 6 4 5 5 6 4 5 5 5 5 5 5 5 5 5 4 4 4 5 5 5 5
7 7 7 8 8 8 8 8 9 8 8 7 7 7 7 8 8 9 9 7 6 6 8 10 10 11 12 13 12 13 13 13 14 15 16 16 16 17 15 11 15 18 13 7 8 7 7 7 7 7 7 7 6 7 6 6 6 5 5 5 6 6 6 4 5 5 5 6 6 5 4 5 5 5 5 4 4 4 4 5 5 4 5 5 6
5 7 10 7 6 6 5 6 7 7 8 8 9 8 8 7 8 9 9 10 9 8 6 6 8 9 7 8 11 13 13 14 14 14 16 16 17 18 17 10 11 10 9 6 6 6 7 8 7 6 7 7 6 6 6 6 6 6 6 7 6 6 5 5 6 6 6 5 4 5 5 5 5 5 5 5 4 5 5 5 5 5 5 5 5
6 6 6 8 7 7 7 6 7 7 8 7 7 7 5 7 7 6 5 5 6 7 5 4 5 7 11 9 12 13 14 14 14 15 15 17 18 20 10 8 8 8 7 7 7 6 6 6 6 6 6 6 6 6 6 6 6 6 6 6 6 5 6 5 5 6 5 6 5 5 4 4 5 5 4 4 6 6 6 5 5 4 4 5 5
6 6 6 5 5 5 4 4 4 4 4 5 5 6 5 5 5 6 5 6 6 5 6 6 6 6 7 4 9 12 14 13 14 14 15 16 19 12 5 7 7 8 7 8 7 7 7 7 7 6 6 7 6 6 6 6 6 6 5 5 5 5 5 5 6 6 6 5 5 5 5 5 5 5 5 6 5 5 5 4 4 5 6 7 5
5 6 5 5 6 6 6 6 6 8 6 6 6 6 6 6 7 7 6 7 7 7 7 7 6 7 8 7 8 6 9 12 14 11 12 13 11 7 6 5 6 7 7 6 7 7 7 7 7 7 7 6 6 6 6 5 5 5 5 5 5 6 7 6 5 5 5 5 5 5 5 4 5 5 5 6 6 5 5 5 6 6 4 6 4
4 6 7 7 5 6 6 7 7 7 7 6 6 6 5 6 7 6 6 6 7 6 5 7 6 6 6 6 7 8 10 8 8 7 7 7 6 6 6 5 6 6 6 6 5 6 6 6 5 6 5 6 6 5 6 6 5 6 5 5 4 3 3 4 4 4 4 4 4 4 4 4 4 5 5 5 4 5 5 5 5 5 5 6 6
5 5 6 8 5 5 4 4 6 6 5 7 6 6 6 6 7 7 7 7 7 7 7 7 7 6 6 7 8 8 8 8 7 7 7 7 6 6 6 6 6 6 6 6 6 6 6 5 5 5 5 5 5 5 5 5 5 5 5 5 5 4 4 5 4 4 5 5 5 4 5 5 4 6 5 5 6 5 5 5 4 5 6 5 5
5 6 6 6 6 6 6 5 5 6 6 5 6 6 6 5 6 5 6 7 7 7 7 6 6 6 6 8 13 12 7 7 7 7 6 7 7 6 6 6 5 6 5 6 5 5 5 6 5 5 5 5 5 5 5 5 5 6 6 5 4 5 4 4 5 5 5 5 5 5 5 5 4 5 5 6 5 5 5 4 4 5 6 4 5
6 6 6 5 6 6 6 4 3 4 5 4 6 6 5 5 6 6 6 7 5 6 7 6 5 5 8 15 15 15 7 5 6 5 6 6 6 6 5 4 4 5 5 5 5 5 5 5 5 5 5 5 5 5 5 5 5 5 5 5 6 5 5 5 5 4 5 4 4 4 4 3 3 4 4 5 4 4 3 4 5 6 5 5 5
5 5 5 4 5 5 5 5 5 5 5 5 4 4 4 5 5 5 6 5 6 6 7 7 5 5 7 12 13 13 5 5 4 6 6 6 5 5 5 5 4 4 4 4 4 5 5 5 5 5 5 5 5 6 6 6 6 6 5 5 6 7 6 4 4 4 4 5 5 3 4 4 4 4 4 4 4 4 4 4 4 5 5 5 4
5 4 4 4 4 5 4 5 5 4 4 4 5 3 4 4 5 5 5 6 6 5 6 6 6 6 6 6 8 5 5 4 5 6 6 5 6 5 5 5 5 5 4 4 4 4 5 5 5 3 3 3 4 3 4 5 6 6 6 6 6 5 5 5 6 5 6 6 6 5 4 4 4 4 4 5 4 5 5 4 5 5 5 4 4
6 6 6 5 5 5 5 5 5 5 5 4 5 5 4 5 6 5 6 6 5 5 6 6 6 6 5 6 6 5 6 5 4 4 5 5 5 5 5 5 5 5 5 4 4 4 4 5 6 5 4 3 3 4 4 3 3 5 6 7 7 7 7 7 6 5 6 5 6 5 5 6 5 5 6 5 4 5 6 5 5 4 4 4 4
5 5 4 6 5 4 5 5 4 5 5 5 6 5 5 5 5 5 5 5 5 6 6 6 6 6 6 6 5 4 5 5 5 5 4 4 5 4 4 4 4 5 5 5 5 4 5 5 6 6 6 5 4 3 3 2 2 2 3 4 6 6 5 6 4 5 6 5 6 5 5 4 5 6 6 5 5 5 5 4 4 5 5 5 5
4 4 4 4 5 4 4 4 5 5 4 4 4 5 5 5 5 4 4 4 5 4 5 5 5 5 5 5 5 4 4 5 5 4 5 4 4 5 4 4 5 4 4 4 4 5 4 5 5 5 5 4 4 5 5 4 3 3 2 3 3 4 4 4 6 5 6 5 5 5 5 5 6 4 7 6 5 6 5 6 6 5 5 4 4
4 4 4 4 4 5 4 4 5 4 4 4 5 4 4 4 4 4 4 4 5 4 5 5 5 4 4 3 3 4 4 4 4 4 4 4 4 5 5 5 5 5 4 4 4 4 4 4 5 4 5 5 5 5 5 4 4 4 4 4 4 4 5 4 4 3 4 4 5 5 5 6 5 5 5 6 6 5 5 6 4 4 5 4 6
4 4 4 4 4 4 4 5 4 4 5 5 5 5 4 5 5 5 4 5 5 4 5 5 5 5 4 4 4 4 4 3 4 4 4 4 4 4 4 5 4 5 5 5 5 4 5 5 4 4 5 4 5 5 5 4 5 4 4 5 6 7 8 7 5 5 5 5 5 4 4 5 5 5 5 5 6 5 6 4 4 4 4 4 4
4 4 5 5 4 5 4 4 5 5 4 5 5 5 5 4 5 4 4 4 5 5 4 5 4 4 5 5 4 4 4 4 4 4 4 4 4 4 4 4 4 4 5 4 4 4 4 3 4 4 4 4 4 5 5 5 5 5 5 5 8 10 9 9 8 7 6 4 5 5 5 5 5 5 6 6 5 5 5 5 5 6 4 4 4
4 4 4 5 5 4 5 5 5 5 5 5 5 5 5 5 4 4 5 5 5 4 4 4 4 4 4 4 3 4 4 4 4 4 4 4 4 4 4 4 4 4 3 3 4 4 4 4 4 4 4 4 5 5 5 5 5 5 6 9 11 10 9 8 6 7 8 6 4 5 6 6 5 6 6 6 6 5 7 5 5 5 4 4 4
Wind_Direction
180 184 176 183 181 186 183 180 186 188 190 191 190 193 195 196 192 179 156 171 162 164 167 169 168 167 159 157 156 156 156 156 153 146 142 142 143 143 144 143 138 139 134 129 123 126 127 127 132 135 134 127 132 127 125 131 118 121 126 122 137 152 136 142 164 222 300 138 142 169 187 149 239 184 204 229 259 281 266 262 276 294 288 280 274
187 180 181 181 185 185 184 182 185 186 190 191 193 193 196 195 180 159 174 176 171 170 170 168 166 166 162 158 156 156 157 154 152 147 146 144 146 149 147 145 141 139 136 136 138 136 134 131 140 145 144 138 141 143 149 141 139 142 161 155 165 184 182 125 178 157 228 287 71 119 182 178 183 202 171 225 278 268 278 285 295 280 276 272 268
188 183 182 184 187 182 180 183 184 191 192 194 196 194 194 190 173 171 175 172 178 174 169 166 166 164 165 160 156 157 159 157 157 152 153 152 152 155 155 152 150 148 146 148 147 143 136 142 152 153 144 139 142 145 150 155 151 155 176 173 174 188 188 156 138 189 201 248 190 172 219 213 177 236 281 225 235 224 267 284 270 272 269 264 262
185 186 185 187 184 181 185 182 184 190 195 196 197 197 194 189 176 177 172 167 175 176 168 167 166 167 167 166 161 158 160 160 157 159 157 156 156 156 158 158 155 152 151 153 154 153 151 147 158 153 144 144 150 153 160 164 165 168 173 191 169 179 186 165 165 154 191 181 295 159 255 176 303 69 201 225 234 279 254 262 272 283 276 262 251
183 188 189 186 185 186 187 184 188 191 194 195 198 197 197 188 179 178 168 172 176 170 173 168 169 172 173 170 164 165 166 162 159 157 157 159 159 157 159 158 158 156 157 157 156 154 156 157 158 157 155 151 154 159 165 169 175 167 174 184 178 173 170 177 193 143 159 206 247 273 170 297 215 233 231 246 297 286 271 266 287 284 281 263 254
188 186 190 191 192 190 189 188 193 191 192 194 195 196 193 187 180 182 177 175 175 179 174 176 176 177 177 176 169 167 167 165 163 162 159 157 158 158 158 159 157 153 152 155 155 157 157 159 162 165 165 165 169 167 167 172 171 173 174 182 178 169 170 183 175 184 173 204 206 276 309 253 317 267 238 229 273 291 303 295 302 288 279 308 307
189 190 192 197 197 198 192 193 189 190 190 190 189 192 193 187 180 184 181 179 178 178 181 178 181 175 177 175 175 169 167 166 163 162 159 160 161 161 160 156 152 149 149 151 154 156 158 159 164 171 174 172 166 170 170 173 179 180 180 180 177 170 185 191 180 179 191 207 243 238 254 270 230 268 291 208 208 203 273 309 293 249 320 329 311
191 194 192 200 206 204 199 190 187 188 185 185 187 190 189 186 185 183 180 185 184 182 180 178 175 177 180 179 176 170 168 169 165 162 162 163 164 164 160 154 148 146 148 154 158 163 162 160 166 173 172 168 169 170 170 175 172 179 183 173 174 175 189 187 185 185 192 204 221 239 251 250 280 287 310 334 304 321 254 228 281 300 304 288 286
196 197 199 206 211 205 197 193 187 182 180 183 185 186 186 184 182 183 187 190 187 183 178 175 172 179 181 179 176 176 175 176 170 166 163 164 163 161 163 163 160 155 151 153 159 161 159 152 158 163 170 172 171 172 169 167 169 177 189 172 178 181 188 191 189 184 196 197 240 242 234 253 253 242 274 249 243 243 236 273 275 285 306 315 297
195 201 207 212 207 199 199 195 190 183 183 188 187 183 183 182 180 186 190 188 182 178 178 180 183 183 178 179 180 178 182 180 177 172 168 167 169 167 164 163 158 155 154 154 157 160 157 147 158 163 168 167 160 168 170 174 174 176 178 175 181 182 187 189 195 192 183 204 225 210 235 246 235 227 233 234 190 307 309 287 280 308 333 299 288
199 204 214 211 197 194 197 201 190 193 192 185 186 184 184 182 182 186 187 184 184 182 178 184 190 184 183 181 180 184 183 181 177 175 173 165 157 160 163 166 164 159 159 160 162 160 157 158 155 157 155 158 155 153 167 174 177 181 184 185 186 180 181 192 205 184 189 212 214 211 227 242 236 207 232 236 242 232 241 232 253 310 301 307 303
202 210 214 202 198 198 201 197 197 199 191 193 187 184 181 182 185 185 185 186 187 179 188 192 186 184 183 184 187 186 185 181 177 170 167 164 163 164 165 162 164 165 162 161 159 159 162 162 160 157 164 167 164 167 171 177 177 176 183 191 198 201 195 186 184 189 193 203 216 219 204 238 222 211 248 232 243 249 212 180 227 261 273 274 276
205 211 210 204 204 202 196 197 200 198 200 194 186 180 182 185 188 188 189 187 178 187 195 188 191 186 184 185 186 184 187 179 172 162 165 169 166 156 167 164 162 166 164 161 161 163 164 164 161 168 171 169 169 181 183 191 196 196 199 203 209 210 214 215 204 189 182 199 213 227 214 220 224 224 179 188 182 187 215 231 231 244 250 261 271
204 211 209 207 205 201 197 196 200 202 195 191 186 183 185 192 192 186 181 182 190 191 191 196 191 189 187 184 182 181 179 180 173 170 169 167 164 159 165 166 168 164 163 166 167 166 168 167 165 173 174 177 186 186 188 191 191 196 205 208 212 222 223 223 220 207 194 203 199 222 221 185 218 196 217 203 184 220 205 241 215 234 243 256 277
205 207 207 206 200 200 198 195 198 196 192 190 190 193 193 192 186 185 184 187 189 191 190 191 195 192 187 184 182 181 185 180 175 166 165 166 166 155 159 159 162 167 167 164 163 162 166 167 174 179 177 187 193 188 184 187 185 196 203 211 212 213 215 221 219 214 213 208 202 221 216 217 229 231 229 224 201 201 193 207 221 233 262 281 281
215 214 215 207 206 204 197 195 193 190 192 193 194 196 196 193 189 183 183 187 191 190 199 196 192 190 186 182 182 185 179 177 173 170 166 168 163 158 163 163 161 160 159 165 165 162 163 169 174 183 188 194 197 194 190 179 182 190 202 212 216 215 219 215 220 222 218 216 217 212 210 209 219 225 201 188 208 193 140 99 94 199 260 286 287
216 212 208 204 205 199 196 195 194 193 193 193 197 197 192 189 186 176 182 184 187 190 190 187 182 180 182 186 187 187 183 183 178 174 171 170 160 155 155 156 164 168 169 165 163 161 171 175 180 185 189 202 196 198 198 186 186 192 200 207 213 213 226 220 224 227 230 232 233 233 234 237 242 246 243 237 228 167 135 153 228 183 250 277 285
215 206 209 207 203 197 197 196 197 196 194 198 198 195 188 185 185 178 183 183 188 186 181 185 188 188 186 188 190 190 187 185 179 173 171 170 160 161 162 162 163 162 162 162 154 168 181 182 187 190 195 205 195 201 201 190 188 195 197 205 214 223 233 220 235 263 259 254 253 252 253 255 258 259 258 257 270 156 162 202 193 151 224 241 271
211 210 213 204 199 196 195 196 199 198 200 200 192 188 188 188 180 176 183 181 186 180 184 186 189 192 195 192 185 182 177 185 179 174 173 170 159 162 159 160 161 164 161 166 168 177 186 194 198 197 198 198 199 204 204 196 188 189 195 195 219 226 227 197 206 231 248 263 269 266 265 260 262 268 271 261 196 168 187 197 185 197 235 257 272
218 216 208 200 198 196 194 196 197 195 197 190 187 188 175 169 173 176 180 181 181 181 182 183 184 187 179 181 184 181 172 175 173 173 179 177 165 159 165 155 169 172 175 172 175 189 191 196 203 206 206 205 207 209 211 205 187 189 175 201 212 236 200 188 207 211 227 225 242 237 244 242 246 213 174 199 219 198 203 195 196 202 214 233 237
212 209 203 199 197 196 193 192 193 195 190 184 176 171 171 173 170 175 179 181 178 178 180 181 180 176 170 173 175 173 155 155 174 181 184 182 173 166 176 180 171 166 170 178 187 190 197 199 195 204 212 213 212 213 214 215 201 182 191 204 211 205 156 188 209 214 216 221 228 225 225 217 203 202 204 200 211 210 213 215 196 201 194 202 236
203 202 200 201 196 190 188 188 185 178 166 156 163 173 175 170 173 175 175 175 177 178 175 176 172 166 162 164 168 163 160 166 176 187 186 186 182 176 171 180 168 162 169 184 186 195 199 193 193 197 206 214 216 215 215 216 216 194 200 210 214 218 202 192 198 205 214 209 218 219 211 205 205 205 212 214 217 216 209 216 208 202 210 193 200
196 197 198 194 191 185 179 172 168 160 166 169 168 170 165 167 167 166 169 171 173 172 172 169 164 160 150 154 156 160 159 168 172 178 189 191 189 185 177 162 176 172 176 188 193 198 186 187 183 185 200 209 214 216 216 217 218 210 203 210 220 225 226 207 196 202 206 212 213 218 212 209 213 215 214 221 224 213 215 216 217 210 219 227 236
181 184 187 183 173 174 170 171 166 165 167 162 162 157 160 160 158 166 169 169 170 170 170 163 157 156 160 156 156 159 162 159 176 174 184 188 192 192 194 188 183 187 186 194 180 178 178 179 180 188 199 205 210 214 216 216 208 214 223 228 233 237 233 222 210 204 204 210 215 217 217 211 210 216 218 219 216 207 211 209 211 215 217 230 244
166 176 171 164 163 160 156 162 161 159 159 157 155 155 152 152 159 165 162 166 168 170 170 167 169 166 159 162 158 157 159 163 171 182 185 192 195 197 201 203 200 187 185 185 172 175 172 177 179 188 193 198 203 209 214 219 224 226 231 235 235 220 222 212 218 216 220 217 217 219 218 207 207 215 214 201 177 168 168 203 185 214 252 266 255
167 173 159 152 151 144 144 140 143 147 150 158 160 162 161 165 165 164 165 170 170 169 167 165 164 163 169 169 170 168 166 163 176 182 196 201 205 208 209 211 209 202 186 172 167 168 176 181 182 184 188 191 195 195 188 202 222 232 237 240 232 209 192 201 224 221 235 232 223 222 218 203 210 193 156 136 154 187 179 196 216 263 253 260 285
169 157 148 142 141 147 145 146 141 143 145 142 146 151 154 155 156 159 166 166 165 165 163 167 172 174 177 180 171 167 176 185 188 190 194 195 204 210 211 214 207 201 192 178 181 181 185 181 169 176 167 187 188 189 191 201 208 219 219 220 215 204 201 200 211 223 230 226 231 229 193 161 109 120 167 169 191 201 187 207 213 243 225 247 243
168 165 153 148 151 152 149 147 145 147 149 147 146 145 154 160 163 170 175 175 172 177 175 178 180 180 179 169 166 168 183 188 193 191 190 189 192 194 202 196 196 193 188 167 162 170 170 176 174 174 176 189 195 182 186 178 188 191 198 202 211 210 211 216 217 198 199 183 191 140 102 122 161 183 177 189 211 214 194 203 202 244 233 207 284
158 152 150 143 148 147 144 147 145 140 132 113 90 113 160 170 169 163 144 165 175 170 170 175 177 179 172 173 171 181 183 200 208 186 187 188 183 181 191 195 187 178 170 153 138 134 133 145 150 157 165 169 174 180 179 176 183 189 199 207 204 199 196 183 194 203 199 171 190 186 200 178 204 188 193 211 223 213 203 202 229 205 254 216 236
152 157 154 151 148 141 137 138 135 137 133 127 115 80 62 91 126 153 152 144 142 157 172 180 178 170 175 190 183 182 194 205 176 183 189 191 192 189 186 183 182 168 170 169 145 145 165 167 179 172 176 172 182 183 184 183 187 199 199 203 195 189 186 196 199 207 193 194 192 194 207 199 210 200 202 220 233 210 202 205 219 200 200 232 246
160 160 156 157 156 149 145 142 143 135 135 134 131 124 101 64 103 119 121 134 147 158 170 161 162 173 172 173 184 188 167 162 172 181 184 188 187 185 181 182 182 179 179 166 151 171 172 176 182 176 177 177 188 194 189 193 197 195 192 184 175 187 191 193 207 193 192 193 204 200 204 202 213 202 207 219 219 219 208 218 193 203 215 226 244
169 170 163 155 151 148 145 145 142 140 144 145 143 141 131 120 71 97 116 124 130 133 150 164 172 174 169 151 142 154 165 164 167 174 179 181 182 180 178 178 178 177 185 160 148 174 177 176 182 181 177 182 189 182 186 185 185 177 171 171 186 182 184 205 208 184 207 202 204 207 198 205 207 214 215 219 215 215 207 214 205 213 235 239 244
162 159 154 151 151 150 150 152 154 151 153 154 158 156 151 144 134 121 107 113 124 131 129 134 149 159 153 153 150 151 151 155 162 167 171 173 173 174 172 173 173 172 173 166 168 173 180 180 183 182 178 181 178 174 179 173 178 172 172 178 180 190 191 215 183 174 195 201 194 203 201 205 209 217 222 217 218 229 218 214 219 222 222 243 257
155 158 161 160 155 159 159 161 159 159 153 152 151 151 149 148 147 142 137 132 121 126 135 141 145 147 150 149 150 148 149 151 151 155 159 162 163 163 161 164 169 175 170 160 171 177 175 180 180 180 172 166 166 162 171 173 175 183 189 186 191 201 204 185 164 194 192 201 195 204 196 203 197 205 223 218 218 214 220 227 216 224 244 238 254
136 138 144 146 153 155 158 158 156 153 157 159 159 158 158 158 152 156 159 157 154 152 156 149 148 143 144 149 153 152 153 153 153 153 155 157 159 159 155 156 165 174 173 174 175 174 171 176 174 173 162 164 168 164 176 181 182 186 192 202 201 193 178 166 186 184 191 191 193 198 200 198 206 208 205 216 218 218 221 217 224 221 231 250 251
139 144 153 153 150 160 162 166 163 163 163 161 154 147 144 143 149 148 133 128 134 136 136 144 144 148 141 141 152 155 157 158 159 160 161 163 163 161 160 172 169 178 170 172 175 179 170 169 163 166 162 164 172 177 182 186 193 192 194 185 186 178 169 171 178 183 189 182 193 198 194 195 194 204 210 215 209 218 217 216 220 226 231 242 247
139 144 155 152 148 142 131 121 123 125 118 121 127 132 134 136 139 140 144 147 146 147 143 139 132 142 143 146 153 154 157 160 163 165 167 168 171 169 165 173 174 172 172 176 172 175 175 178 172 172 173 177 186 186 187 190 189 183 188 176 172 174 182 171 182 176 175 177 184 187 198 204 199 197 194 214 224 213 216 221 233 237 240 246 251
138 148 153 143 136 131 128 130 128 127 129 133 134 136 137 144 151 153 154 155 153 149 152 153 152 152 147 158 157 153 152 154 154 160 171 176 179 164 167 173 173 183 176 175 171 177 179 177 176 181 188 182 187 181 175 164 157 150 148 145 158 171 182 169 160 153 164 175 185 194 194 202 196 195 196 203 212 214 223 219 221 237 251 249 249
118 121 126 129 130 138 141 140 141 138 137 136 141 141 145 144 147 149 150 148 148 149 152 157 161 161 164 158 150 159 156 162 169 172 172 180 172 158 163 167 172 175 171 171 159 164 162 165 165 160 159 163 158 153 154 157 147 152 156 157 158 160 160 135 148 155 163 181 192 190 189 199 194 191 188 189 208 209 220 227 231 229 236 245 246
121 123 122 123 113 120 129 133 133 135 145 145 148 143 139 152 157 157 153 155 157 160 164 169 173 170 165 164 163 169 173 173 170 171 169 173 170 166 164 169 168 167 166 166 161 153 148 149 149 147 145 145 149 146 152 155 155 154 147 153 157 164 179 168 171 176 192 193 189 195 181 185 182 176 181 190 207 209 211 224 226 227 229 236 248
134 130 135 134 138 134 129 134 143 150 149 150 149 156 163 159 155 154 157 158 158 160 171 173 172 162 167 173 177 178 171 175 166 169 172 169 166 165 170 167 157 153 150 153 152 142 144 146 148 150 148 150 151 150 151 156 154 149 156 160 159 174 175 174 176 188 186 176 178 180 181 171 174 166 199 221 209 204 212 213 221 228 233 238 238
140 141 137 139 137 133 134 136 135 133 136 143 155 163 158 160 162 164 164 163 160 160 157 159 153 161 167 175 181 180 173 169 161 162 158 160 163 167 161 156 151 151 154 156 154 150 141 140 147 150 154 155 150 154 145 152 158 160 157 160 168 171 172 186 182 180 171 173 173 175 187 182 185 192 203 204 214 210 208 217 218 226 236 241 247
140 135 134 135 135 138 141 141 137 142 146 151 155 141 144 148 158 154 157 156 156 157 153 151 151 158 169 180 181 178 146 157 152 162 160 163 162 157 156 152 138 126 125 128 132 141 144 149 153 159 163 170 171 168 170 177 169 167 168 173 179 182 192 194 184 182 178 174 189 195 191 202 202 200 203 209 196 200 211 218 230 231 235 236 236
126 115 114 111 110 100 101 122 129 127 129 120 117 124 134 133 133 143 147 150 151 151 146 149 150 157 168 181 183 159 151 148 149 160 159 157 159 158 144 131 127 120 118 116 121 124 135 139 139 128 122 137 146 143 153 166 160 169 176 176 182 185 186 190 189 185 175 179 183 191 196 198 200 193 208 209 195 207 221 220 227 231 234 236 238
127 129 131 126 119 120 117 114 122 123 123 122 125 127 135 141 148 147 150 151 148 145 145 149 157 162 172 177 178 162 159 153 150 142 151 150 146 137 132 132 134 134 128 125 115 117 127 138 142 142 147 147 133 136 138 139 151 166 170 168 179 189 195 195 198 186 170 168 185 186 195 192 200 199 207 212 204 202 212 216 217 227 235 237 232
129 134 134 135 131 130 129 128 126 133 142 145 146 147 146 142 147 148 151 148 151 151 149 155 163 172 176 172 164 146 152 144 147 142 134 132 133 130 126 128 122 129 133 136 132 125 135 144 152 158 162 170 163 165 177 180 170 163 164 164 181 190 192 186 178 166 169 173 181 186 188 189 195 199 202 203 210 202 209 218 213 215 217 230 232
107 120 126 133 132 127 119 126 128 136 132 128 133 136 139 139 133 134 135 141 142 143 144 154 158 167 163 163 157 146 134 135 136 138 141 134 131 130 126 121 122 120 123 125 133 143 150 155 160 163 168 174 166 172 184 194 194 196 185 177 168 171 169 161 157 163 171 176 173 173 186 191 202 205 204 199 203 208 203 209 208 219 222 220 222
56 65 68 78 87 99 106 108 117 117 116 122 121 124 124 122 122 122 124 128 128 130 132 135 140 136 131 125 111 110 115 120 122 127 128 130 128 129 130 133 139 143 133 137 153 159 169 169 165 161 167 171 174 186 190 190 193 194 201 201 194 191 189 172 158 164 166 162 165 178 184 196 204 202 207 200 204 201 205 216 215 216 219 226 233
74 83 94 92 98 105 117 118 116 120 122 117 113 112 113 117 116 113 114 120 122 125 134 138 135 126 125 128 126 126 131 133 139 140 135 135 130 129 136 147 148 152 158 172 178 180 181 179 181 179 181 186 188 189 193 197 202 206 201 199 196 196 193 189 177 180 176 170 176 175 185 191 201 207 205 203 204 203 208 212 210 218 220 220 217
71 77 90 92 98 98 102 106 108 110 109 115 117 118 115 114 114 118 122 116 115 117 125 129 140 142 144 144 147 151 152 158 153 148 141 138 137 143 140 150 160 170 174 183 188 184 188 186 187 191 193 195 199 201 201 204 207 208 209 203 203 198 192 189 181 183 181 180 180 187 183 194 195 203 211 208 202 197 203 211 211 217 221 227 235
68 73 78 84 93 100 101 109 108 111 117 125 126 133 133 132 134 136 136 139 143 139 134 137 137 135 139 146 147 153 153 150 145 146 146 150 149 152 155 162 175 185 190 180 183 181 190 195 200 203 204 203 206 206 208 209 208 208 210 213 215 213 198 188 185 194 183 173 180 180 186 191 193 201 207 210 203 203 212 212 214 216 221 222 225